| time (UTC) | temp F | wind direction | speed MPH | gust MPH | rain 1hr in | rain 24hr in | rain mn in | humidity % | barometer mb |
| 20260506194950 | 83 | 198 | 7.0 | 8.0 | 0.00 | 0.00 | 0.00 | 82 | 1008.9 |
| 20260506194448 | 84 | 170 | 9.0 | 10.0 | 0.00 | 0.00 | 0.00 | 80 | 1009.0 |
| 20260506193945 | 84 | 178 | 10.0 | 10.0 | 0.00 | 0.00 | 0.00 | 79 | 1009.0 |
| 20260506193442 | 84 | 174 | 8.0 | 8.0 | 0.00 | 0.00 | 0.00 | 81 | 1009.1 |
| 20260506192938 | 83 | 138 | 8.0 | 9.0 | 0.00 | 0.00 | 0.00 | 82 | 1009.1 |
| 20260506192436 | 83 | 171 | 9.0 | 10.0 | 0.00 | 0.00 | 0.00 | 82 | 1009.1 |
| 20260506191932 | 83 | 165 | 8.0 | 10.0 | 0.00 | 0.00 | 0.00 | 83 | 1009.5 |
| 20260506191429 | 83 | 181 | 14.0 | 14.0 | 0.00 | 0.00 | 0.00 | 82 | 1009.5 |
| 20260506190925 | 82 | 163 | 10.0 | 10.0 | 0.00 | 0.00 | 0.00 | 83 | 1009.4 |
| 20260506190422 | 82 | 206 | 8.0 | 8.0 | 0.00 | 0.00 | 0.00 | 82 | 1009.5 |
| 20260506185919 | 83 | 168 | 11.0 | 11.0 | 0.00 | 0.00 | 0.00 | 82 | 1009.6 |
| 20260506185417 | 83 | 203 | 9.0 | 11.0 | 0.00 | 0.00 | 0.00 | 82 | 1009.6 |
| 20260506184913 | 83 | 171 | 8.0 | 10.0 | 0.00 | 0.00 | 0.00 | 82 | 1009.6 |
| 20260506184410 | 82 | 209 | 9.0 | 10.0 | 0.00 | 0.00 | 0.00 | 83 | 1009.6 |
| 20260506183908 | 81 | 200 | 6.0 | 7.0 | 0.00 | 0.00 | 0.00 | 86 | 1009.7 |
| 20260506183403 | 81 | 177 | 9.0 | 10.0 | 0.00 | 0.00 | 0.00 | 86 | 1009.9 |
| 20260506182900 | 81 | 179 | 10.0 | 11.0 | 0.00 | 0.00 | 0.00 | 86 | 1010.0 |
| 20260506182357 | 81 | 177 | 10.0 | 11.0 | 0.00 | 0.00 | 0.00 | 85 | 1010.1 |
| 20260506181854 | 81 | 163 | 5.0 | 6.0 | 0.00 | 0.00 | 0.00 | 87 | 1010.1 |
| 20260506181352 | 81 | 179 | 8.0 | 9.0 | 0.00 | 0.00 | 0.00 | 87 | 1010.2 |
| 20260506180849 | 81 | 169 | 7.0 | 8.0 | 0.00 | 0.00 | 0.00 | 87 | 1010.0 |
| 20260506180345 | 81 | 198 | 9.0 | 10.0 | 0.00 | 0.00 | 0.00 | 86 | 1010.4 |
| 20260506175842 | 81 | 173 | 7.0 | 8.0 | 0.00 | 0.00 | 0.00 | 86 | 1010.1 |
| 20260506175338 | 80 | 182 | 8.0 | 9.0 | 0.00 | 0.00 | 0.00 | 86 | 1010.3 |
| 20260506174836 | 80 | 177 | 8.0 | 11.0 | 0.00 | 0.00 | 0.00 | 87 | 1010.4 |
| 20260506174333 | 80 | 174 | 4.0 | 5.0 | 0.00 | 0.00 | 0.00 | 87 | 1010.4 |
| 20260506173831 | 80 | 171 | 6.0 | 6.0 | 0.00 | 0.00 | 0.00 | 87 | 1010.3 |
| 20260506173327 | 80 | 197 | 7.0 | 8.0 | 0.00 | 0.00 | 0.00 | 87 | 1010.3 |
| 20260506172825 | 80 | 175 | 5.0 | 6.0 | 0.00 | 0.00 | 0.00 | 87 | 1010.4 |
| 20260506172321 | 80 | 148 | 7.0 | 7.0 | 0.00 | 0.00 | 0.00 | 86 | 1010.5 |
| 20260506171818 | 80 | 172 | 8.0 | 8.0 | 0.00 | 0.00 | 0.00 | 86 | 1010.3 |
| 20260506171315 | 81 | 157 | 9.0 | 10.0 | 0.00 | 0.00 | 0.00 | 86 | 1010.4 |
| 20260506170813 | 81 | 173 | 8.0 | 9.0 | 0.00 | 0.00 | 0.00 | 85 | 1010.4 |
| 20260506170309 | 81 | 172 | 8.0 | 8.0 | 0.00 | 0.00 | 0.00 | 85 | 1010.2 |
| 20260506165808 | 81 | 183 | 8.0 | 10.0 | 0.00 | 0.00 | 0.00 | 84 | 1010.3 |
| 20260506165306 | 81 | 189 | 8.0 | 9.0 | 0.00 | 0.00 | 0.00 | 85 | 1010.3 |
| 20260506164802 | 81 | 158 | 7.0 | 8.0 | 0.00 | 0.00 | 0.00 | 85 | 1010.2 |
| 20260506164258 | 81 | 169 | 8.0 | 10.0 | 0.00 | 0.00 | 0.00 | 86 | 1010.2 |
| 20260506163755 | 81 | 165 | 9.0 | 10.0 | 0.00 | 0.00 | 0.00 | 86 | 1010.2 |
| 20260506163250 | 81 | 171 | 9.0 | 9.0 | 0.00 | 0.00 | 0.00 | 86 | 1010.2 |
| 20260506162746 | 81 | 163 | 8.0 | 10.0 | 0.00 | 0.00 | 0.00 | 86 | 1010.2 |
| 20260506162244 | 80 | 169 | 10.0 | 10.0 | 0.00 | 0.00 | 0.00 | 86 | 1010.1 |
| 20260506161742 | 80 | 176 | 12.0 | 15.0 | 0.00 | 0.00 | 0.00 | 87 | 1010.1 |
| 20260506161239 | 80 | 167 | 10.0 | 11.0 | 0.00 | 0.00 | 0.00 | 87 | 1010.1 |
| 20260506160736 | 80 | 165 | 8.0 | 9.0 | 0.00 | 0.00 | 0.00 | 87 | 1009.8 |
| 20260506160233 | 80 | 164 | 13.0 | 15.0 | 0.00 | 0.00 | 0.00 | 86 | 1009.8 |
| 20260506155731 | 80 | 156 | 11.0 | 11.0 | 0.00 | 0.00 | 0.00 | 88 | 1009.7 |
| 20260506155228 | 79 | 183 | 11.0 | 13.0 | 0.00 | 0.00 | 0.00 | 91 | 1009.8 |
| 20260506153335 | 78 | 156 | 3.0 | 3.0 | 0.00 | 0.00 | 0.00 | 92 | 1009.6 |
| 20260506152832 | 78 | 173 | 5.0 | 5.0 | 0.00 | 0.00 | 0.00 | 91 | 1009.7 |
| 20260506152329 | 79 | 140 | 6.0 | 7.0 | 0.00 | 0.00 | 0.00 | 91 | 1009.6 |
| 20260506151828 | 79 | 137 | 5.0 | 6.0 | 0.00 | 0.00 | 0.00 | 91 | 1009.5 |
| 20260506151324 | 79 | 133 | 7.0 | 8.0 | 0.00 | 0.00 | 0.00 | 92 | 1009.4 |
| 20260506150821 | 78 | 144 | 5.0 | 6.0 | 0.00 | 0.00 | 0.00 | 92 | 1009.0 |
| 20260506150318 | 78 | 148 | 7.0 | 7.0 | 0.00 | 0.00 | 0.00 | 92 | 1009.4 |
| 20260506145815 | 78 | 138 | 9.0 | 9.0 | 0.00 | 0.00 | 0.00 | 93 | 1009.1 |
| 20260506145311 | 78 | 135 | 8.0 | 9.0 | 0.00 | 0.00 | 0.00 | 93 | 1009.3 |
| 20260506144809 | 78 | 143 | 6.0 | 7.0 | 0.00 | 0.00 | 0.00 | 94 | 1009.3 |
| 20260506144305 | 77 | 116 | 6.0 | 7.0 | 0.00 | 0.00 | 0.00 | 94 | 1009.0 |
| 20260506143804 | 77 | 116 | 4.0 | 5.0 | 0.00 | 0.00 | 0.00 | 94 | 1009.3 |
| 20260506143300 | 77 | 131 | 6.0 | 7.0 | 0.00 | 0.00 | 0.00 | 94 | 1008.9 |
| 20260506142759 | 77 | 123 | 5.0 | 6.0 | 0.00 | 0.00 | 0.00 | 94 | 1008.9 |
| 20260506142256 | 77 | 126 | 7.0 | 8.0 | 0.00 | 0.00 | 0.00 | 94 | 1009.1 |
| 20260506141754 | 77 | 142 | 6.0 | 6.0 | 0.00 | 0.00 | 0.00 | 94 | 1009.0 |
| 20260506141253 | 77 | 119 | 4.0 | 5.0 | 0.00 | 0.00 | 0.00 | 94 | 1008.9 |
| 20260506140750 | 77 | 103 | 3.0 | 3.0 | 0.00 | 0.00 | 0.00 | 95 | 1009.0 |
| 20260506140246 | 77 | 130 | 5.0 | 6.0 | 0.00 | 0.00 | 0.00 | 95 | 1008.8 |
| 20260506135744 | 77 | 122 | 5.0 | 6.0 | 0.00 | 0.00 | 0.00 | 95 | 1008.9 |
| 20260506135240 | 77 | 96 | 5.0 | 5.0 | 0.00 | 0.00 | 0.00 | 95 | 1009.2 |
| 20260506134737 | 77 | 115 | 2.0 | 2.0 | 0.00 | 0.00 | 0.00 | 95 | 1009.1 |
| 20260506134233 | 77 | 114 | 7.0 | 8.0 | 0.00 | 0.00 | 0.00 | 95 | 1009.0 |
| 20260506133730 | 77 | 107 | 4.0 | 5.0 | 0.00 | 0.00 | 0.00 | 95 | 1008.9 |
| 20260506133227 | 77 | 115 | 5.0 | 6.0 | 0.00 | 0.00 | 0.00 | 95 | 1009.3 |
| 20260506132724 | 77 | 122 | 3.0 | 3.0 | 0.00 | 0.00 | 0.00 | 95 | 1009.1 |
| 20260506132221 | 77 | 122 | 4.0 | 5.0 | 0.00 | 0.00 | 0.00 | 95 | 1009.3 |
| 20260506131719 | 76 | 133 | 3.0 | 3.0 | 0.00 | 0.00 | 0.00 | 95 | 1009.0 |
| 20260506131214 | 76 | 148 | 4.0 | 3.0 | 0.00 | 0.00 | 0.00 | 95 | 1009.0 |
| 20260506130712 | 76 | 147 | 2.0 | 2.0 | 0.00 | 0.00 | 0.00 | 95 | 1009.1 |
| 20260506130209 | 76 | 109 | 2.0 | 2.0 | 0.00 | 0.00 | 0.00 | 95 | 1009.1 |
| 20260506125707 | 76 | 118 | 3.0 | 3.0 | 0.00 | 0.00 | 0.00 | 95 | 1009.0 |
| 20260506125204 | 76 | 116 | 3.0 | 3.0 | 0.00 | 0.00 | 0.00 | 95 | 1008.9 |
| 20260506124702 | 76 | 97 | 2.0 | 2.0 | 0.00 | 0.00 | 0.00 | 95 | 1009.0 |
| 20260506124200 | 76 | 133 | 2.0 | 2.0 | 0.00 | 0.00 | 0.00 | 95 | 1009.0 |
| 20260506123657 | 76 | 82 | 1.0 | 1.0 | 0.00 | 0.00 | 0.00 | 95 | 1009.0 |
| 20260506123155 | 76 | 84 | 1.0 | 1.0 | 0.00 | 0.00 | 0.00 | 95 | 1009.1 |
| 20260506122652 | 76 | 129 | 2.0 | 2.0 | 0.00 | 0.00 | 0.00 | 95 | 1008.9 |
| 20260506122150 | 76 | 129 | 3.0 | 3.0 | 0.00 | 0.00 | 0.00 | 95 | 1008.6 |
| 20260506121647 | 76 | 119 | 3.0 | 3.0 | 0.00 | 0.00 | 0.00 | 95 | 1008.9 |
| 20260506121143 | 76 | 118 | 3.0 | 5.0 | 0.00 | 0.00 | 0.00 | 95 | 1008.8 |
| 20260506120642 | 76 | 118 | 2.0 | 2.0 | 0.00 | 0.00 | 0.00 | 95 | 1008.5 |
| 20260506120138 | 76 | 110 | 2.0 | 2.0 | 0.00 | 0.00 | 0.00 | 95 | 1008.5 |
| 20260506115637 | 76 | 75 | 1.0 | 1.0 | 0.00 | 0.00 | 0.00 | 95 | 1008.6 |
| 20260506115135 | 76 | 134 | 2.0 | 1.0 | 0.00 | 0.00 | 0.00 | 95 | 1008.9 |
| 20260506114632 | 76 | 122 | 3.0 | 3.0 | 0.00 | 0.00 | 0.00 | 95 | 1008.7 |
| 20260506114130 | 76 | 148 | 4.0 | 5.0 | 0.00 | 0.00 | 0.00 | 95 | 1008.8 |
| 20260506113628 | 76 | 131 | 3.0 | 2.0 | 0.00 | 0.00 | 0.00 | 95 | 1008.6 |
| 20260506113125 | 76 | 136 | 3.0 | 5.0 | 0.00 | 0.00 | 0.00 | 95 | 1008.7 |
| 20260506112621 | 76 | 165 | 3.0 | 3.0 | 0.00 | 0.00 | 0.00 | 95 | 1008.7 |
| 20260506112119 | 76 | 156 | 3.0 | 3.0 | 0.00 | 0.00 | 0.00 | 95 | 1008.4 |
| 20260506111616 | 76 | 160 | 3.0 | 3.0 | 0.00 | 0.00 | 0.00 | 95 | 1008.7 |
| 20260506111114 | 76 | 155 | 3.0 | 3.0 | 0.00 | 0.00 | 0.00 | 95 | 1008.6 |
| 20260506110611 | 76 | 141 | 3.0 | 3.0 | 0.00 | 0.00 | 0.00 | 95 | 1008.4 |
| 20260506110108 | 76 | 138 | 5.0 | 5.0 | 0.00 | 0.00 | 0.00 | 95 | 1008.3 |
| 20260506105604 | 76 | 123 | 3.0 | 2.0 | 0.00 | 0.00 | 0.00 | 95 | 1008.7 |
| 20260506105101 | 76 | 129 | 4.0 | 5.0 | 0.00 | 0.00 | 0.00 | 95 | 1008.3 |
| 20260506104600 | 76 | 133 | 3.0 | 3.0 | 0.00 | 0.00 | 0.00 | 95 | 1008.4 |
| 20260506104057 | 76 | 130 | 3.0 | 3.0 | 0.00 | 0.00 | 0.00 | 95 | 1008.4 |
| 20260506103554 | 76 | 127 | 3.0 | 3.0 | 0.00 | 0.00 | 0.00 | 95 | 1008.3 |
| 20260506103051 | 76 | 136 | 2.0 | 2.0 | 0.00 | 0.00 | 0.00 | 95 | 1008.4 |
| 20260506102549 | 76 | 127 | 3.0 | 3.0 | 0.00 | 0.00 | 0.00 | 95 | 1008.3 |
| 20260506102046 | 76 | 119 | 3.0 | 2.0 | 0.00 | 0.00 | 0.00 | 95 | 1008.3 |
| 20260506101543 | 76 | 124 | 3.0 | 2.0 | 0.00 | 0.00 | 0.00 | 95 | 1008.3 |
| 20260506101040 | 76 | 138 | 3.0 | 3.0 | 0.00 | 0.00 | 0.00 | 95 | 1008.2 |
| 20260506100538 | 76 | 148 | 4.0 | 5.0 | 0.00 | 0.00 | 0.00 | 95 | 1008.1 |
| 20260506100036 | 76 | 163 | 3.0 | 3.0 | 0.00 | 0.00 | 0.00 | 95 | 1008.3 |
| 20260506095535 | 76 | 134 | 3.0 | 3.0 | 0.00 | 0.00 | 0.00 | 95 | 1008.1 |
| 20260506095030 | 76 | 140 | 4.0 | 5.0 | 0.00 | 0.00 | 0.00 | 94 | 1008.3 |
| 20260506094528 | 76 | 152 | 3.0 | 3.0 | 0.00 | 0.00 | 0.00 | 94 | 1008.2 |
| 20260506094026 | 76 | 148 | 5.0 | 5.0 | 0.00 | 0.00 | 0.00 | 94 | 1008.2 |
| 20260506093524 | 76 | 135 | 5.0 | 5.0 | 0.00 | 0.00 | 0.00 | 94 | 1008.2 |
| 20260506093021 | 76 | 149 | 4.0 | 6.0 | 0.00 | 0.00 | 0.00 | 94 | 1008.1 |
| 20260506092519 | 76 | 163 | 4.0 | 5.0 | 0.00 | 0.00 | 0.00 | 94 | 1008.0 |
| 20260506092015 | 76 | 158 | 3.0 | 3.0 | 0.00 | 0.00 | 0.00 | 94 | 1008.1 |
| 20260506091514 | 76 | 155 | 3.0 | 3.0 | 0.00 | 0.00 | 0.00 | 94 | 1008.1 |
| 20260506091011 | 76 | 144 | 5.0 | 6.0 | 0.00 | 0.00 | 0.00 | 94 | 1007.8 |
| 20260506090509 | 76 | 138 | 5.0 | 6.0 | 0.00 | 0.00 | 0.00 | 94 | 1008.0 |
| 20260506090005 | 76 | 167 | 6.0 | 7.0 | 0.00 | 0.00 | 0.00 | 94 | 1007.9 |
| 20260506085501 | 76 | 142 | 5.0 | 6.0 | 0.00 | 0.00 | 0.00 | 94 | 1008.0 |
| 20260506084958 | 76 | 150 | 5.0 | 6.0 | 0.00 | 0.00 | 0.00 | 94 | 1008.1 |
| 20260506084455 | 76 | 152 | 5.0 | 6.0 | 0.00 | 0.00 | 0.00 | 93 | 1008.2 |
| 20260506083951 | 76 | 196 | 7.0 | 7.0 | 0.00 | 0.00 | 0.00 | 93 | 1008.2 |
| 20260506083448 | 76 | 157 | 6.0 | 6.0 | 0.00 | 0.00 | 0.00 | 94 | 1008.2 |
| 20260506082945 | 76 | 148 | 7.0 | 7.0 | 0.00 | 0.00 | 0.00 | 93 | 1008.2 |
| 20260506082442 | 76 | 165 | 5.0 | 6.0 | 0.00 | 0.00 | 0.00 | 93 | 1008.0 |
| 20260506081938 | 76 | 150 | 5.0 | 5.0 | 0.00 | 0.00 | 0.00 | 93 | 1008.0 |
| 20260506081437 | 76 | 147 | 6.0 | 6.0 | 0.00 | 0.00 | 0.00 | 94 | 1008.1 |
| 20260506080934 | 76 | 147 | 7.0 | 7.0 | 0.00 | 0.00 | 0.00 | 94 | 1008.2 |
| 20260506080431 | 76 | 176 | 5.0 | 5.0 | 0.00 | 0.00 | 0.00 | 94 | 1008.2 |
| 20260506073415 | 77 | 175 | 7.0 | 7.0 | 0.00 | 0.00 | 0.00 | 93 | 1008.5 |
| 20260506072912 | 77 | 150 | 7.0 | 7.0 | 0.00 | 0.00 | 0.00 | 93 | 1008.7 |
| 20260506072409 | 77 | 148 | 6.0 | 7.0 | 0.00 | 0.00 | 0.00 | 93 | 1008.9 |
| 20260506071907 | 77 | 176 | 5.0 | 6.0 | 0.00 | 0.00 | 0.00 | 93 | 1008.8 |
| 20260506071405 | 77 | 166 | 5.0 | 6.0 | 0.00 | 0.00 | 0.00 | 93 | 1009.0 |
| 20260506070901 | 77 | 174 | 8.0 | 9.0 | 0.00 | 0.00 | 0.00 | 93 | 1008.7 |
| 20260506070358 | 77 | 176 | 6.0 | 7.0 | 0.00 | 0.00 | 0.00 | 93 | 1009.0 |
| 20260506062335 | 77 | 195 | 6.0 | 7.0 | 0.00 | 0.00 | 0.00 | 92 | 1009.5 |
| 20260506061831 | 77 | 193 | 5.0 | 6.0 | 0.00 | 0.00 | 0.00 | 92 | 1009.3 |
| 20260506061328 | 77 | 187 | 6.0 | 6.0 | 0.00 | 0.00 | 0.00 | 92 | 1009.3 |
| 20260506060826 | 77 | 188 | 4.0 | 6.0 | 0.00 | 0.00 | 0.00 | 92 | 1009.4 |
| 20260506060324 | 77 | 215 | 6.0 | 6.0 | 0.00 | 0.00 | 0.00 | 92 | 1009.4 |
| 20260506051255 | 77 | 198 | 10.0 | 11.0 | 0.00 | 0.00 | 0.00 | 92 | 1008.7 |
| 20260506050754 | 77 | 176 | 8.0 | 10.0 | 0.00 | 0.00 | 0.00 | 91 | 1009.1 |
| 20260506050251 | 77 | 142 | 8.0 | 10.0 | 0.00 | 0.00 | 0.00 | 91 | 1008.9 |
| 20260506044741 | 77 | 179 | 6.0 | 7.0 | 0.00 | 0.00 | 0.00 | 91 | 1009.0 |
| 20260506044238 | 77 | 189 | 11.0 | 13.0 | 0.00 | 0.00 | 0.00 | 91 | 1008.7 |
| 20260506043736 | 77 | 188 | 8.0 | 9.0 | 0.00 | 0.00 | 0.00 | 91 | 1008.7 |
| 20260506043233 | 77 | 206 | 11.0 | 14.0 | 0.00 | 0.00 | 0.00 | 91 | 1008.6 |
| 20260506042732 | 77 | 166 | 7.0 | 9.0 | 0.00 | 0.00 | 0.00 | 91 | 1008.7 |
| 20260506042230 | 77 | 173 | 11.0 | 11.0 | 0.00 | 0.00 | 0.00 | 91 | 1008.7 |
| 20260506041728 | 77 | 182 | 9.0 | 9.0 | 0.00 | 0.00 | 0.00 | 91 | 1008.8 |
| 20260506041225 | 77 | 162 | 9.0 | 10.0 | 0.00 | 0.00 | 0.00 | 91 | 1008.8 |
| 20260506040722 | 77 | 150 | 9.0 | 10.0 | 0.00 | 0.00 | 0.00 | 90 | 1008.6 |
| 20260506040219 | 77 | 169 | 11.0 | 11.0 | 0.00 | 0.00 | 0.00 | 90 | 1008.6 |
| 20260506035716 | 77 | 176 | 12.0 | 16.0 | 0.00 | 0.00 | 0.00 | 91 | 1008.5 |
| 20260506035213 | 77 | 185 | 7.0 | 8.0 | 0.00 | 0.00 | 0.00 | 90 | 1008.6 |
| 20260506034709 | 77 | 184 | 12.0 | 13.0 | 0.00 | 0.00 | 0.00 | 90 | 1008.3 |
| 20260506034207 | 77 | 161 | 11.0 | 11.0 | 0.00 | 0.00 | 0.00 | 90 | 1008.5 |
| 20260506033704 | 77 | 157 | 8.0 | 9.0 | 0.00 | 0.00 | 0.00 | 90 | 1008.4 |
| 20260506033201 | 77 | 195 | 10.0 | 11.0 | 0.00 | 0.00 | 0.00 | 90 | 1008.6 |
| 20260506032658 | 77 | 183 | 12.0 | 14.0 | 0.00 | 0.00 | 0.00 | 91 | 1008.4 |
| 20260506032155 | 77 | 165 | 8.0 | 11.0 | 0.00 | 0.00 | 0.00 | 91 | 1008.7 |
| 20260506031651 | 77 | 181 | 7.0 | 8.0 | 0.00 | 0.00 | 0.00 | 91 | 1008.7 |
| 20260506031149 | 77 | 167 | 7.0 | 8.0 | 0.00 | 0.00 | 0.00 | 91 | 1008.7 |
| 20260506030647 | 77 | 162 | 9.0 | 9.0 | 0.00 | 0.00 | 0.00 | 91 | 1008.5 |
| 20260506030144 | 77 | 164 | 8.0 | 8.0 | 0.00 | 0.00 | 0.00 | 91 | 1008.5 |
| 20260506025641 | 77 | 168 | 9.0 | 11.0 | 0.00 | 0.00 | 0.00 | 91 | 1008.4 |
| 20260506025137 | 77 | 183 | 10.0 | 10.0 | 0.00 | 0.00 | 0.00 | 91 | 1008.2 |
| 20260506024635 | 77 | 188 | 9.0 | 10.0 | 0.00 | 0.00 | 0.00 | 91 | 1008.3 |
| 20260506024130 | 77 | 188 | 9.0 | 10.0 | 0.00 | 0.00 | 0.00 | 91 | 1008.1 |
| 20260506023627 | 77 | 176 | 9.0 | 10.0 | 0.00 | 0.00 | 0.00 | 91 | 1008.1 |
| 20260506023124 | 77 | 176 | 7.0 | 8.0 | 0.00 | 0.00 | 0.00 | 91 | 1008.1 |
| 20260506022622 | 77 | 166 | 11.0 | 11.0 | 0.00 | 0.00 | 0.00 | 91 | 1008.0 |
| 20260506022119 | 77 | 178 | 6.0 | 7.0 | 0.00 | 0.00 | 0.00 | 91 | 1007.9 |
| 20260506021616 | 77 | 185 | 6.0 | 7.0 | 0.00 | 0.00 | 0.00 | 91 | 1007.8 |
| 20260506021114 | 77 | 181 | 6.0 | 8.0 | 0.00 | 0.00 | 0.00 | 91 | 1007.6 |
| 20260506020610 | 77 | 169 | 8.0 | 9.0 | 0.00 | 0.00 | 0.00 | 91 | 1007.6 |
| 20260506020108 | 77 | 189 | 7.0 | 8.0 | 0.00 | 0.00 | 0.00 | 91 | 1007.5 |
| 20260506015606 | 77 | 155 | 10.0 | 10.0 | 0.00 | 0.00 | 0.00 | 91 | 1007.5 |
| 20260506015102 | 77 | 182 | 9.0 | 10.0 | 0.00 | 0.00 | 0.00 | 90 | 1007.8 |
| 20260506014600 | 77 | 158 | 10.0 | 11.0 | 0.00 | 0.00 | 0.00 | 90 | 1007.5 |
| 20260506014055 | 77 | 191 | 14.0 | 15.0 | 0.00 | 0.00 | 0.00 | 90 | 1007.3 |
| 20260506013554 | 77 | 171 | 11.0 | 11.0 | 0.00 | 0.00 | 0.00 | 90 | 1007.4 |
| 20260506013050 | 77 | 191 | 7.0 | 9.0 | 0.00 | 0.00 | 0.00 | 90 | 1007.2 |
| 20260506012546 | 77 | 187 | 9.0 | 11.0 | 0.00 | 0.00 | 0.00 | 89 | 1007.0 |
| 20260506012043 | 77 | 177 | 9.0 | 11.0 | 0.00 | 0.00 | 0.00 | 89 | 1007.0 |
| 20260506011541 | 78 | 192 | 8.0 | 9.0 | 0.00 | 0.00 | 0.00 | 89 | 1007.1 |
| 20260506011036 | 78 | 200 | 9.0 | 9.0 | 0.00 | 0.00 | 0.00 | 88 | 1006.9 |
| 20260506010531 | 78 | 188 | 11.0 | 11.0 | 0.00 | 0.00 | 0.00 | 88 | 1006.8 |
| 20260506010027 | 78 | 148 | 12.0 | 13.0 | 0.00 | 0.00 | 0.00 | 88 | 1006.8 |
| 20260506005524 | 78 | 177 | 8.0 | 10.0 | 0.00 | 0.00 | 0.00 | 87 | 1006.7 |
| 20260506005020 | 78 | 186 | 12.0 | 16.0 | 0.00 | 0.00 | 0.00 | 87 | 1006.7 |
| 20260506004518 | 78 | 176 | 13.0 | 16.0 | 0.00 | 0.00 | 0.00 | 86 | 1006.7 |
| 20260506004014 | 78 | 195 | 13.0 | 18.0 | 0.00 | 0.00 | 0.00 | 87 | 1006.7 |
| 20260506003510 | 78 | 200 | 11.0 | 13.0 | 0.00 | 0.00 | 0.00 | 87 | 1006.6 |
| 20260506003006 | 78 | 182 | 13.0 | 16.0 | 0.00 | 0.00 | 0.00 | 87 | 1006.7 |
| 20260506002502 | 78 | 176 | 12.0 | 15.0 | 0.00 | 0.00 | 0.00 | 87 | 1006.8 |
| 20260506001958 | 78 | 179 | 11.0 | 13.0 | 0.00 | 0.00 | 0.00 | 86 | 1006.7 |
| 20260506001455 | 78 | 182 | 11.0 | 13.0 | 0.00 | 0.00 | 0.00 | 86 | 1006.7 |
| 20260506000952 | 78 | 185 | 14.0 | 15.0 | 0.00 | 0.00 | 0.00 | 86 | 1006.8 |
| 20260506000449 | 79 | 175 | 14.0 | 15.0 | 0.00 | 0.00 | 0.00 | 86 | 1006.5 |
| 20260505235946 | 79 | 148 | 10.0 | 11.0 | 0.00 | 0.00 | 0.00 | 85 | 1006.5 |
| 20260505235445 | 79 | 170 | 11.0 | 13.0 | 0.00 | 0.00 | 0.00 | 85 | 1006.7 |
| 20260505234941 | 79 | 166 | 15.0 | 16.0 | 0.00 | 0.00 | 0.00 | 85 | 1006.5 |
| 20260505234439 | 79 | 179 | 13.0 | 14.0 | 0.00 | 0.00 | 0.00 | 85 | 1006.4 |
| 20260505233935 | 79 | 163 | 11.0 | 13.0 | 0.00 | 0.00 | 0.00 | 85 | 1006.5 |
| 20260505233433 | 79 | 180 | 15.0 | 18.0 | 0.00 | 0.00 | 0.00 | 85 | 1006.5 |
| 20260505232930 | 79 | 170 | 9.0 | 10.0 | 0.00 | 0.00 | 0.00 | 85 | 1006.6 |
| 20260505232428 | 79 | 194 | 12.0 | 14.0 | 0.00 | 0.00 | 0.00 | 84 | 1006.5 |
| 20260505231924 | 79 | 171 | 13.0 | 15.0 | 0.00 | 0.00 | 0.00 | 84 | 1006.8 |
| 20260505231422 | 79 | 161 | 15.0 | 17.0 | 0.00 | 0.00 | 0.00 | 83 | 1006.7 |
| 20260505230920 | 79 | 179 | 16.0 | 21.0 | 0.00 | 0.00 | 0.00 | 84 | 1006.7 |
| 20260505230418 | 79 | 187 | 12.0 | 15.0 | 0.00 | 0.00 | 0.00 | 83 | 1006.6 |
| 20260505225914 | 80 | 197 | 15.0 | 17.0 | 0.00 | 0.00 | 0.00 | 83 | 1006.6 |
| 20260505225411 | 80 | 158 | 13.0 | 14.0 | 0.00 | 0.00 | 0.00 | 83 | 1006.7 |
| 20260505224906 | 80 | 183 | 15.0 | 17.0 | 0.00 | 0.00 | 0.00 | 82 | 1006.8 |
| 20260505224404 | 80 | 183 | 13.0 | 15.0 | 0.00 | 0.00 | 0.00 | 82 | 1006.8 |
| 20260505223901 | 80 | 202 | 10.0 | 11.0 | 0.00 | 0.00 | 0.00 | 82 | 1006.9 |
| 20260505223358 | 80 | 205 | 12.0 | 14.0 | 0.00 | 0.00 | 0.00 | 83 | 1007.0 |
| 20260505222854 | 80 | 202 | 11.0 | 14.0 | 0.00 | 0.00 | 0.00 | 82 | 1006.9 |
| 20260505222350 | 80 | 192 | 8.0 | 8.0 | 0.00 | 0.00 | 0.00 | 83 | 1007.1 |
| 20260505221847 | 80 | 182 | 13.0 | 15.0 | 0.00 | 0.00 | 0.00 | 82 | 1007.0 |
| 20260505221344 | 80 | 177 | 12.0 | 15.0 | 0.00 | 0.00 | 0.00 | 82 | 1007.1 |
| 20260505220841 | 80 | 184 | 14.0 | 16.0 | 0.00 | 0.00 | 0.00 | 83 | 1007.1 |
| 20260505220338 | 80 | 169 | 15.0 | 17.0 | 0.00 | 0.00 | 0.00 | 82 | 1007.1 |
| 20260505215836 | 80 | 186 | 14.0 | 15.0 | 0.00 | 0.00 | 0.00 | 82 | 1007.5 |
| 20260505215333 | 80 | 179 | 9.0 | 10.0 | 0.00 | 0.00 | 0.00 | 83 | 1007.4 |
| 20260505214831 | 80 | 179 | 13.0 | 15.0 | 0.00 | 0.00 | 0.00 | 82 | 1007.3 |
| 20260505214328 | 80 | 174 | 13.0 | 16.0 | 0.00 | 0.00 | 0.00 | 82 | 1007.3 |
| 20260505213825 | 80 | 132 | 13.0 | 16.0 | 0.00 | 0.00 | 0.00 | 81 | 1007.5 |
| 20260505213324 | 80 | 172 | 11.0 | 14.0 | 0.00 | 0.00 | 0.00 | 81 | 1007.4 |
| 20260505212819 | 80 | 161 | 11.0 | 13.0 | 0.00 | 0.00 | 0.00 | 81 | 1007.5 |
| 20260505212317 | 80 | 177 | 13.0 | 15.0 | 0.00 | 0.00 | 0.00 | 81 | 1007.4 |
| 20260505211812 | 80 | 159 | 11.0 | 14.0 | 0.00 | 0.00 | 0.00 | 81 | 1007.7 |
| 20260505211310 | 80 | 178 | 14.0 | 16.0 | 0.00 | 0.00 | 0.00 | 81 | 1007.6 |
| 20260505210806 | 81 | 170 | 14.0 | 17.0 | 0.00 | 0.00 | 0.00 | 80 | 1007.6 |
| 20260505210303 | 81 | 161 | 13.0 | 15.0 | 0.00 | 0.00 | 0.00 | 81 | 1007.7 |
| 20260505205800 | 81 | 160 | 10.0 | 10.0 | 0.00 | 0.00 | 0.00 | 81 | 1007.7 |
| 20260505205259 | 81 | 160 | 8.0 | 9.0 | 0.00 | 0.00 | 0.00 | 81 | 1007.7 |
| 20260505204755 | 81 | 134 | 11.0 | 15.0 | 0.00 | 0.00 | 0.00 | 80 | 1007.7 |
| 20260505204253 | 82 | 128 | 9.0 | 11.0 | 0.00 | 0.00 | 0.00 | 80 | 1008.1 |
| 20260505203750 | 82 | 212 | 11.0 | 13.0 | 0.00 | 0.00 | 0.00 | 78 | 1008.1 |
| 20260505203247 | 81 | 208 | 7.0 | 8.0 | 0.00 | 0.00 | 0.00 | 79 | 1008.1 |
| 20260505202742 | 81 | 177 | 13.0 | 15.0 | 0.00 | 0.00 | 0.00 | 81 | 1008.2 |
| 20260505202239 | 81 | 151 | 11.0 | 13.0 | 0.00 | 0.00 | 0.00 | 82 | 1008.3 |
| 20260505201736 | 81 | 206 | 12.0 | 14.0 | 0.00 | 0.00 | 0.00 | 78 | 1008.5 |
| 20260505201233 | 81 | 205 | 12.0 | 14.0 | 0.00 | 0.00 | 0.00 | 78 | 1008.3 |
| 20260505200732 | 81 | 179 | 12.0 | 15.0 | 0.00 | 0.00 | 0.00 | 77 | 1008.6 |
| 20260505200229 | 81 | 207 | 11.0 | 13.0 | 0.00 | 0.00 | 0.00 | 78 | 1008.4 |
| 20260505195724 | 81 | 181 | 8.0 | 9.0 | 0.00 | 0.00 | 0.00 | 79 | 1008.6 |